Tiempo cada hora Barra da Estiva

Hoy, 4 Marzo, Jueves

Tiempo Temperatura Precipitaciones Viento Presión Humedad
00:00 +18°C° 0 mm 1 mps 675 mmHg 89%
01:00 +18°C° 0 mm 1 mps 675 mmHg 89%
02:00 +16°C° 0 mm 1 mps 675 mmHg 89%
03:00 +16°C° 0 mm 1 mps 675 mmHg 89%
04:00 +16°C° 0 mm 1 mps 675 mmHg 90%
05:00 +16°C° 0 mm 1 mps 675 mmHg 90%
06:00 +16°C° 0 mm 1 mps 675 mmHg 91%
07:00 +19°C° 0 mm 1 mps 676 mmHg 83%
08:00 +21°C° 0 mm 1 mps 676 mmHg 75%
09:00 +23°C° 0 mm 1 mps 677 mmHg 68%
10:00 +24°C° 0 mm 2 mps 677 mmHg 63%
11:00 +26°C° 0 mm 2 mps 677 mmHg 58%
12:00 +28°C° 0 mm 2 mps 677 mmHg 53%
13:00 +28°C° 0 mm 2 mps 677 mmHg 51%
14:00 +28°C° 0 mm 2 mps 676 mmHg 49%
15:00 +28°C° 0 mm 3 mps 675 mmHg 48%
16:00 +27°C° 0 mm 2 mps 674 mmHg 54%
17:00 +25°C° 0 mm 2 mps 674 mmHg 61%
18:00 +23°C° 0 mm 2 mps 673 mmHg 68%
19:00 +21°C° 0 mm 2 mps 673 mmHg 71%
20:00 +21°C° 0 mm 2 mps 674 mmHg 74%
21:00 +20°C° 0 mm 2 mps 674 mmHg 77%
22:00 +20°C° 0 mm 1 mps 674 mmHg 82%
23:00 +19°C° 0 mm 1 mps 674 mmHg 87%

Mañana, 5 Marzo, Viernes

Tiempo Temperatura Precipitaciones Viento Presión Humedad
00:00 +19°C° 0 mm 1 mps 674 mmHg 92%
01:00 +19°C° 0 mm 1 mps 674 mmHg 93%
02:00 +18°C° 0 mm 1 mps 674 mmHg 94%
03:00 +18°C° 0 mm 1 mps 674 mmHg 95%
04:00 +18°C° 0 mm 1 mps 674 mmHg 95%
05:00 +18°C° 0 mm 1 mps 673 mmHg 95%
06:00 +16°C° 0 mm 1 mps 673 mmHg 96%
07:00 +20°C° 0 mm 1 mps 674 mmHg 87%
08:00 +22°C° 0 mm 1 mps 675 mmHg 78%
09:00 +24°C° 0 mm 1 mps 676 mmHg 70%
10:00 +26°C° 0 mm 1 mps 676 mmHg 64%
11:00 +27°C° 0 mm 1 mps 676 mmHg 57%
12:00 +29°C° 0 mm 1 mps 675 mmHg 51%
13:00 +30°C° 0 mm 1 mps 675 mmHg 49%
14:00 +30°C° 0 mm 1 mps 674 mmHg 47%
15:00 +30°C° 0 mm 1 mps 673 mmHg 45%
16:00 +28°C° 0 mm 1 mps 673 mmHg 52%
17:00 +27°C° 0 mm 1 mps 673 mmHg 59%
18:00 +25°C° 0 mm 1 mps 672 mmHg 66%
19:00 +24°C° 0 mm 1 mps 673 mmHg 67%
20:00 +24°C° 0 mm 1 mps 673 mmHg 68%
21:00 +23°C° 0 mm 1 mps 674 mmHg 69%
22:00 +22°C° 0 mm 1 mps 674 mmHg 72%
23:00 +21°C° 0 mm 1 mps 674 mmHg 75%

Pasado mañana, 6 Marzo, Sábado

Tiempo Temperatura Precipitaciones Viento Presión Humedad
00:00 +20°C° 0 mm 1 mps 674 mmHg 78%
01:00 +20°C° 0 mm 1 mps 673 mmHg 81%
02:00 +20°C° 0 mm 1 mps 673 mmHg 83%
03:00 +18°C° 0 mm 2 mps 673 mmHg 86%
04:00 +18°C° 0 mm 2 mps 673 mmHg 88%
05:00 +19°C° 0 mm 1 mps 673 mmHg 91%
06:00 +18°C° 0 mm 1 mps 674 mmHg 93%
07:00 +21°C° 0 mm 1 mps 674 mmHg 85%
08:00 +23°C° 0 mm 1 mps 675 mmHg 77%
09:00 +25°C° 0 mm 1 mps 676 mmHg 68%
10:00 +27°C° 0 mm 1 mps 676 mmHg 62%
11:00 +29°C° 0 mm 1 mps 676 mmHg 55%
12:00 +31°C° 0 mm 1 mps 676 mmHg 49%
13:00 +31°C° 0 mm 2 mps 675 mmHg 47%
14:00 +31°C° 0 mm 2 mps 674 mmHg 45%
15:00 +32°C° 0 mm 2 mps 674 mmHg 43%
16:00 +30°C° 0.1 mm 2 mps 673 mmHg 50%
17:00 +28°C° 0.1 mm 2 mps 673 mmHg 58%
18:00 +26°C° 0.1 mm 2 mps 672 mmHg 66%
19:00 +25°C° 0 mm 2 mps 673 mmHg 65%
20:00 +24°C° 0 mm 2 mps 673 mmHg 64%
21:00 +24°C° 0 mm 1 mps 674 mmHg 64%
22:00 +23°C° 0 mm 1 mps 674 mmHg 64%
23:00 +23°C° 0 mm 2 mps 674 mmHg 64%

7 Marzo, Domingo

Tiempo Temperatura Precipitaciones Viento Presión Humedad
00:00 +21°C° 0 mm 2 mps 674 mmHg 64%
01:00 +20°C° 0 mm 2 mps 674 mmHg 68%
02:00 +20°C° 0 mm 2 mps 673 mmHg 72%
03:00 +19°C° 0 mm 2 mps 673 mmHg 76%
04:00 +19°C° 0 mm 2 mps 673 mmHg 80%
05:00 +19°C° 0 mm 1 mps 674 mmHg 84%
06:00 +19°C° 0 mm 1 mps 674 mmHg 88%
07:00 +21°C° 0 mm 1 mps 675 mmHg 79%
08:00 +24°C° 0 mm 1 mps 675 mmHg 70%
09:00 +27°C° 0 mm 2 mps 676 mmHg 61%
10:00 +28°C° 0 mm 2 mps 676 mmHg 55%
11:00 +30°C° 0 mm 2 mps 676 mmHg 49%
12:00 +31°C° 0 mm 2 mps 676 mmHg 44%
13:00 +31°C° 0 mm 3 mps 675 mmHg 45%
14:00 +31°C° 0 mm 3 mps 674 mmHg 46%
15:00 +30°C° 0 mm 4 mps 673 mmHg 48%
16:00 +29°C° 0 mm 3 mps 673 mmHg 52%
17:00 +27°C° 0 mm 2 mps 673 mmHg 56%
18:00 +25°C° 0 mm 1 mps 672 mmHg 61%
19:00 +25°C° 0 mm 2 mps 673 mmHg 60%
20:00 +24°C° 0 mm 2 mps 673 mmHg 59%
21:00 +24°C° 0 mm 2 mps 674 mmHg 58%
22:00 +23°C° 0 mm 1 mps 674 mmHg 58%
23:00 +22°C° 0 mm 1 mps 674 mmHg 59%

8 Marzo, Lunes

Tiempo Temperatura Precipitaciones Viento Presión Humedad
00:00 +22°C° 0 mm 1 mps 674 mmHg 60%
01:00 +21°C° 0 mm 1 mps 674 mmHg 62%
02:00 +21°C° 0 mm 1 mps 673 mmHg 63%
03:00 +20°C° 0 mm 2 mps 673 mmHg 65%
04:00 +20°C° 0 mm 1 mps 673 mmHg 70%
05:00 +19°C° 0 mm 1 mps 673 mmHg 74%
06:00 +19°C° 0 mm 1 mps 674 mmHg 79%
07:00 +21°C° 0 mm 1 mps 674 mmHg 72%
08:00 +24°C° 0 mm 1 mps 675 mmHg 65%
09:00 +26°C° 0 mm 1 mps 676 mmHg 57%
10:00 +28°C° 0 mm 2 mps 676 mmHg 53%
11:00 +29°C° 0 mm 2 mps 676 mmHg 48%
12:00 +31°C° 0 mm 2 mps 676 mmHg 43%
13:00 +31°C° 0 mm 3 mps 675 mmHg 42%
14:00 +31°C° 0 mm 3 mps 674 mmHg 42%
15:00 +32°C° 0 mm 4 mps 673 mmHg 42%
16:00 +29°C° 0 mm 3 mps 673 mmHg 47%
17:00 +27°C° 0 mm 2 mps 672 mmHg 52%
18:00 +25°C° 0 mm 2 mps 672 mmHg 56%
19:00 +25°C° 0 mm 2 mps 673 mmHg 56%
20:00 +24°C° 0 mm 1 mps 673 mmHg 55%
21:00 +23°C° 0 mm 1 mps 673 mmHg 54%
22:00 +23°C° 0 mm 1 mps 673 mmHg 57%
23:00 +22°C° 0 mm 1 mps 673 mmHg 60%

9 Marzo, Martes

Tiempo Temperatura Precipitaciones Viento Presión Humedad
00:00 +21°C° 0 mm 1 mps 674 mmHg 63%
01:00 +21°C° 0 mm 1 mps 673 mmHg 66%
02:00 +20°C° 0 mm 1 mps 673 mmHg 69%
03:00 +20°C° 0 mm 1 mps 672 mmHg 72%
04:00 +19°C° 0 mm 1 mps 673 mmHg 75%
05:00 +19°C° 0 mm 1 mps 673 mmHg 79%
06:00 +18°C° 0 mm 1 mps 673 mmHg 82%
07:00 +21°C° 0 mm 1 mps 674 mmHg 74%
08:00 +23°C° 0 mm 2 mps 674 mmHg 66%
09:00 +26°C° 0 mm 2 mps 675 mmHg 59%
10:00 +27°C° 0 mm 2 mps 675 mmHg 52%
11:00 +29°C° 0 mm 2 mps 675 mmHg 46%
12:00 +31°C° 0 mm 2 mps 675 mmHg 40%
13:00 +31°C° 0 mm 2 mps 674 mmHg 41%
14:00 +31°C° 0 mm 3 mps 673 mmHg 41%
15:00 +30°C° 0 mm 3 mps 672 mmHg 41%
16:00 +29°C° 0 mm 2 mps 672 mmHg 46%
17:00 +27°C° 0 mm 2 mps 672 mmHg 50%
18:00 +26°C° 0 mm 2 mps 672 mmHg 54%
19:00 +25°C° 0 mm 1 mps 672 mmHg 53%
20:00 +24°C° 0 mm 1 mps 672 mmHg 51%
21:00 +23°C° 0 mm 1 mps 673 mmHg 50%
22:00 +23°C° 0 mm 1 mps 673 mmHg 52%
23:00 +22°C° 0 mm 1 mps 673 mmHg 55%
Mostrar más

Necesitamos Su Consentimiento

Meteoprog y nuestros Proveedores de Servicios pueden almacenar y acceder a sus datos personales como cookies, identificadores de dispositivo u otras tecnologías similares de su dispositivo y procesar dichos datos para personalizar contenido y anuncios, además de ofrecer funciones de redes sociales y analizar el tráfico.

  • Almacenar y/o acceder a información en su dispositivo

    Se puede almacenar o acceder a cookies, identificadores de dispositivo u otra información de su dispositivo para los fines anteriormente indicados.

  • Anuncios y contenido personalizados, medición de anuncios y contenido, percepciones del público, y desarrollo de productos

    Los anuncios y el contenido pueden personalizarse en base a su perfil. Se pueden añadir más datos para personalizar mejor los anuncios y contenidos. Se puede medir el rendimiento de los anuncios y contenidos. Se puede obtener la percepción sobre el público que ha visto los anuncios y contenidos. Dichos datos pueden usarse para desarrollar o mejorar la experiencia del usuario, sistemas y software.

Al hacer clic en ‘Estoy De Acuerdo’ usted permitirá el uso de las cookies, identificadores de dispositivo, balizas web u otras tecnologías similares indicadas. Su configuración puede cambiarse desde el navegador de su dispositivo.

Para ciertos fines, los intereses legítimos pueden ser considerados por encima del consentimiento. Puede leer más sobre ello en nuestra Política de Privacidad y Cookies.